Weather History for Audubon, IA

Change the Weather History Date:

Saturday, March 30, 2013

  Actual Average Record
Temperature  
Mean Temperature 52 °F -  
Max Temperature 62 °F 55 °F 86 °F (1968)
Min Temperature 42 °F 31 °F 5 °F (1964)
Degree Days  
Heating Degree Days 13    
Growing Degree Days 2 (Base 50)    
Moisture  
Dew Point 43 °F    
Average Humidity 74    
Maximum Humidity 93    
Minimum Humidity 52    
Precipitation  
Precipitation 0.00 in - - ()
Sea Level Pressure  
Sea Level Pressure 29.96 in    
Wind  
Wind Speed 6 mph (WNW)    
Max Wind Speed 21 mph    
Max Gust Speed 24 mph    
Visibility 10 miles    
Events      
Averages and records for this station are not official NWS values.
T = Trace of Precipitation, MM = Missing Value Source: NWS Daily Summary

Daily Weather History Graph

Daily Weather History Graph

Search for Another Location

Airport:

Trip Planner

Search our weather history database for the weather conditions in past years. The results will help you decide how hot, cold, wet, or windy it might be!

Date:

Astronomy

Mar. 30, 2013 Rise Set
Actual Time 7:05 AM CDT 7:43 PM CDT
Civil Twilight 6:37 AM CDT 8:11 PM CDT
Nautical Twilight 6:04 AM CDT 8:44 PM CDT
Astronomical Twilight 5:30 AM CDT 9:18 PM CDT
Moon 11:54 PM CDT (3/30) 8:58 AM CDT (3/30)
Length of Visible Light 13h 33m
Length of Day
12h 37m
Waning Gibbous, 86% of the Moon is Illuminated
Mar 30
Waning Gibbous
Apr 2
Last Quarter
Apr 10
New
Apr 18
First Quarter
Apr 25
Full

Hourly Weather History & Observations

Time (CDT) Temp. Windchill Dew Point Humidity Pressure Visibility Wind Dir Wind Speed Gust Speed Precip Events Conditions
12:15 AM 46.4 °F 44.3 °F 35.6 °F 66% 30.07 in 10.0 mi SSE 4.6 mph - N/A   Scattered Clouds
12:35 AM 48.2 °F - 35.6 °F 62% 30.07 in 10.0 mi South 8.1 mph - N/A   Clear
12:55 AM 50.0 °F - 35.6 °F 58% 30.06 in 10.0 mi South 10.4 mph - N/A   Clear
1:15 AM 50.0 °F - 35.6 °F 58% 30.07 in 10.0 mi South 8.1 mph - N/A   Clear
1:35 AM 50.0 °F - 35.6 °F 58% 30.07 in 10.0 mi South 8.1 mph - N/A   Clear
1:55 AM 50.0 °F - 35.6 °F 58% 30.08 in 10.0 mi South 11.5 mph - N/A   Clear
2:15 AM 50.0 °F - 35.6 °F 58% 30.08 in 10.0 mi South 9.2 mph - N/A   Scattered Clouds
2:35 AM 50.0 °F - 37.4 °F 62% 30.08 in 10.0 mi South 11.5 mph - N/A   Mostly Cloudy
2:55 AM 48.2 °F - 39.2 °F 71% 30.07 in 10.0 mi South 9.2 mph - N/A   Overcast
3:15 AM 48.2 °F - 39.2 °F 71% 30.06 in 10.0 mi South 6.9 mph - N/A   Overcast
3:35 AM 46.4 °F 45.2 °F 39.2 °F 76% 30.04 in 10.0 mi South 3.5 mph - N/A   Mostly Cloudy
3:55 AM 46.4 °F 44.3 °F 39.2 °F 76% 30.03 in 10.0 mi SSE 4.6 mph - N/A   Scattered Clouds
4:15 AM 44.6 °F 43.1 °F 39.2 °F 81% 30.02 in 10.0 mi SSE 3.5 mph - N/A   Mostly Cloudy
4:35 AM 46.4 °F 45.2 °F 39.2 °F 76% 30.01 in 10.0 mi SE 3.5 mph - N/A   Overcast
4:55 AM 46.4 °F - 39.2 °F 76% 30.00 in 10.0 mi Calm Calm - N/A   Overcast
5:15 AM 44.6 °F 43.1 °F 39.2 °F 81% 30.00 in 10.0 mi NNW 3.5 mph - N/A   Overcast
5:35 AM 44.6 °F - 39.2 °F 81% 30.00 in 10.0 mi Calm Calm - N/A   Overcast
5:55 AM 44.6 °F 43.1 °F 39.2 °F 81% 30.00 in 10.0 mi NNW 3.5 mph - N/A   Overcast
6:15 AM 44.6 °F - 39.2 °F 81% 29.99 in 10.0 mi Calm Calm - N/A   Overcast
6:35 AM 44.6 °F - 39.2 °F 81% 29.99 in 10.0 mi Calm Calm - N/A   Overcast
6:55 AM 44.6 °F - 39.2 °F 81% 30.00 in 10.0 mi Calm Calm - N/A   Overcast
7:15 AM 42.8 °F 41.1 °F 39.2 °F 87% 29.99 in 10.0 mi NNW 3.5 mph - N/A   Overcast
7:35 AM 44.6 °F - 41.0 °F 87% 29.99 in 10.0 mi Calm Calm - N/A   Overcast
7:55 AM 44.6 °F - 39.2 °F 81% 29.99 in 10.0 mi Calm Calm - N/A   Overcast
8:15 AM 44.6 °F - 41.0 °F 87% 29.99 in 7.0 mi Calm Calm - N/A   Overcast
8:35 AM 44.6 °F 43.1 °F 41.0 °F 87% 29.98 in 10.0 mi South 3.5 mph - N/A   Overcast
8:55 AM 44.6 °F - 42.8 °F 93% 29.97 in 10.0 mi Calm Calm - N/A   Mostly Cloudy
9:15 AM 44.6 °F 42.2 °F 42.8 °F 93% 29.97 in 7.0 mi SSE 4.6 mph - N/A   Scattered Clouds
9:35 AM 46.4 °F - 44.6 °F 93% 29.96 in 10.0 mi Calm Calm - N/A   Mostly Cloudy
9:55 AM 48.2 °F - 44.6 °F 87% 29.96 in 10.0 mi South 3.5 mph - N/A   Mostly Cloudy
10:15 AM 50.0 °F - 46.4 °F 87% 29.95 in 10.0 mi South 4.6 mph - N/A   Mostly Cloudy
10:35 AM 51.8 °F - 48.2 °F 88% 29.95 in 10.0 mi SSW 6.9 mph - N/A   Scattered Clouds
10:55 AM 55.4 °F - 51.8 °F 88% 29.94 in 10.0 mi SSW 8.1 mph - N/A   Scattered Clouds
11:15 AM 55.4 °F - 51.8 °F 88% 29.93 in 10.0 mi WSW 10.4 mph - N/A   Scattered Clouds
11:35 AM 57.2 °F - 51.8 °F 82% 29.93 in 10.0 mi SW 8.1 mph - N/A   Scattered Clouds
11:55 AM 59.0 °F - 51.8 °F 77% 29.93 in 10.0 mi West 6.9 mph - N/A   Scattered Clouds
12:15 PM 60.8 °F - 51.8 °F 72% 29.93 in 10.0 mi West 9.2 mph - N/A   Scattered Clouds
12:35 PM 60.8 °F - 51.8 °F 72% 29.92 in 10.0 mi West 9.2 mph 17.3 mph N/A   Scattered Clouds
12:55 PM 60.8 °F - 51.8 °F 72% 29.92 in 10.0 mi NW 9.2 mph 17.3 mph N/A   Scattered Clouds
1:15 PM 59.0 °F - 51.8 °F 77% 29.92 in 10.0 mi NW 11.5 mph 18.4 mph N/A   Scattered Clouds
1:35 PM 57.2 °F - 50.0 °F 77% 29.92 in 10.0 mi WNW 9.2 mph - N/A   Scattered Clouds
1:55 PM 57.2 °F - 51.8 °F 82% 29.92 in 10.0 mi NW 10.4 mph 16.1 mph N/A   Scattered Clouds
2:15 PM 60.8 °F - 51.8 °F 72% 29.92 in 10.0 mi NNW 16.1 mph - N/A   Scattered Clouds
2:35 PM 59.0 °F - 50.0 °F 72% 29.92 in 10.0 mi NNW 13.8 mph 23.0 mph N/A   Clear
2:55 PM 60.8 °F - 50.0 °F 68% 29.91 in 10.0 mi NW 13.8 mph 18.4 mph N/A   Clear
3:15 PM 59.0 °F - 48.2 °F 67% 29.92 in 10.0 mi NNW 12.7 mph 18.4 mph N/A   Scattered Clouds
3:35 PM 59.0 °F - 48.2 °F 67% 29.92 in 10.0 mi North 13.8 mph - N/A   Scattered Clouds
3:55 PM 60.8 °F - 48.2 °F 63% 29.91 in 10.0 mi NNW 11.5 mph - N/A   Clear
4:15 PM 60.8 °F - 48.2 °F 63% 29.91 in 10.0 mi North 16.1 mph - N/A   Clear
4:35 PM 62.6 °F - 46.4 °F 55% 29.90 in 10.0 mi NNW 15.0 mph - N/A   Clear
4:55 PM 62.6 °F - 44.6 °F 52% 29.90 in 10.0 mi North 20.7 mph - N/A   Clear
5:15 PM 60.8 °F - 42.8 °F 52% 29.90 in 10.0 mi NNW 13.8 mph 24.2 mph N/A   Clear
5:35 PM 60.8 °F - 42.8 °F 52% 29.90 in 10.0 mi NNW 15.0 mph 23.0 mph N/A   Clear
5:55 PM 60.8 °F - 42.8 °F 52% 29.90 in 10.0 mi North 12.7 mph - N/A   Clear
6:15 PM 59.0 °F - 42.8 °F 55% 29.90 in 10.0 mi North 9.2 mph - N/A   Clear
6:35 PM 57.2 °F - 42.8 °F 59% 29.91 in 10.0 mi North 10.4 mph - N/A   Clear
6:55 PM 57.2 °F - 42.8 °F 59% 29.91 in 10.0 mi North 8.1 mph - N/A   Clear
7:15 PM 55.4 °F - 42.8 °F 63% 29.90 in 10.0 mi NNW 4.6 mph - N/A   Clear
7:35 PM 55.4 °F - 42.8 °F 63% 29.91 in 10.0 mi NW 3.5 mph - N/A   Clear
7:55 PM 51.8 °F - 41.0 °F 67% 29.91 in 10.0 mi Calm Calm - N/A   Clear
8:15 PM 48.2 °F - 41.0 °F 76% 29.91 in 10.0 mi Calm Calm - N/A   Clear
8:35 PM 46.4 °F - 39.2 °F 76% 29.92 in 10.0 mi Calm Calm - N/A   Clear
8:55 PM 44.6 °F - 39.2 °F 81% 29.92 in 10.0 mi Calm Calm - N/A   Clear
9:15 PM 44.6 °F - 39.2 °F 81% 29.93 in 10.0 mi Calm Calm - N/A   Clear
9:35 PM 42.8 °F - 37.4 °F 81% 29.93 in 10.0 mi Calm Calm - N/A   Clear
9:55 PM 44.6 °F 43.1 °F 41.0 °F 87% 29.93 in 10.0 mi NW 3.5 mph - N/A   Scattered Clouds
10:15 PM 42.8 °F - 39.2 °F 87% 29.94 in 10.0 mi Calm Calm - N/A   Scattered Clouds
10:35 PM 46.4 °F 45.2 °F 41.0 °F 81% 29.94 in 10.0 mi NW 3.5 mph - N/A   Clear
10:55 PM 44.6 °F - 39.2 °F 81% 29.93 in 10.0 mi Calm Calm - N/A   Clear
11:15 PM 46.4 °F 43.5 °F 39.2 °F 76% 29.93 in 10.0 mi NW 5.8 mph - N/A   Clear
11:35 PM 46.4 °F - 39.2 °F 76% 29.93 in 10.0 mi Calm Calm - N/A   Clear
11:55 PM 46.4 °F 44.3 °F 39.2 °F 76% 29.93 in 10.0 mi NW 4.6 mph - N/A   Scattered Clouds